Theta_e
319 319 318 318 319 318 319 320 319 319 321 321 321 321 321 322 321 321 322 321 321 320 319 319 322 323 324 324 323 324 321 312 311 313 314 316 313 310 310 309 309 310 309 310 312 312 311 312 312 313 316 316 315 317 316 314 315 319 321 319 316 317 317 317 317 316 315 317 314 311 313 317 316 312 310 311 312 314 314 314 315 316 319 322 323 323 328 333
319 319 318 318 318 317 317 318 317 318 321 321 321 321 321 321 321 321 321 321 320 319 317 314 317 321 322 322 321 321 315 309 310 312 315 317 313 310 309 308 308 309 309 310 312 312 312 311 313 314 316 316 314 316 317 315 316 319 320 318 317 319 316 314 316 314 314 316 314 311 312 315 315 313 312 313 315 314 314 315 315 316 319 323 323 325 329 332
318 318 317 318 317 315 315 316 316 319 321 321 320 320 320 320 320 321 321 320 320 318 315 312 315 319 319 319 318 316 311 309 308 310 316 317 314 311 310 309 308 309 310 311 312 312 312 311 313 314 315 315 314 314 317 316 316 317 318 318 319 319 315 311 313 313 311 312 314 312 310 312 312 312 312 314 315 313 314 316 315 316 318 322 325 327 330 332
317 317 316 317 317 315 315 316 319 320 321 320 320 319 319 320 320 320 320 320 320 318 314 313 317 317 315 316 314 311 309 309 310 311 316 316 314 313 310 309 308 309 311 312 312 311 311 311 313 314 315 315 313 314 315 315 315 317 317 318 318 316 315 311 310 310 308 310 314 312 311 312 311 310 312 314 315 314 315 315 315 316 315 322 326 328 332 333
318 316 315 315 315 315 316 319 320 320 320 319 319 319 319 319 319 319 319 319 320 318 314 312 315 312 311 312 309 307 309 313 314 312 315 315 314 312 310 309 308 311 313 313 311 310 311 311 313 314 314 315 314 315 314 311 313 317 314 314 314 313 315 311 307 308 307 309 312 312 312 313 311 311 313 314 315 315 314 313 314 314 315 323 326 329 332 332
317 316 314 314 314 316 319 320 320 319 319 318 318 319 319 319 318 318 318 318 319 318 314 311 312 309 308 309 307 308 312 318 315 312 316 315 314 311 309 308 308 312 314 312 310 309 310 311 313 314 314 314 315 314 313 309 311 317 313 310 310 310 313 309 307 308 307 310 312 312 313 311 311 312 311 312 315 314 309 309 310 309 316 326 328 329 331 332
317 316 314 313 315 318 319 319 318 318 318 317 318 319 318 318 318 318 318 318 318 318 316 313 311 309 308 308 310 310 311 314 312 313 316 314 314 311 309 309 311 314 314 310 309 310 310 311 313 313 313 314 314 313 312 310 311 316 314 311 309 309 310 307 306 306 306 310 311 310 311 311 313 313 308 310 314 312 307 309 310 310 318 327 327 329 331 332
317 316 315 315 316 318 318 318 318 318 317 317 318 318 318 317 317 317 317 317 317 318 317 314 310 309 309 310 312 310 309 310 311 314 313 313 314 311 311 312 314 315 313 310 309 310 310 312 312 312 313 313 312 312 311 311 313 315 314 310 309 308 308 305 304 305 306 308 307 308 311 311 310 310 308 311 313 310 307 311 315 317 321 325 326 329 332 332
317 316 316 316 317 318 318 317 317 317 317 317 318 317 317 317 317 317 317 317 316 317 317 314 309 309 309 310 311 309 309 310 311 312 311 314 314 312 312 313 314 313 311 310 309 310 310 312 312 311 312 311 311 312 311 313 314 314 312 310 309 309 307 306 306 306 307 307 307 310 312 309 307 307 311 313 310 307 307 312 319 321 321 324 326 329 332 332
317 317 317 317 317 316 317 316 316 317 317 317 317 316 317 316 316 316 316 316 316 317 316 312 309 309 309 309 309 308 310 311 311 311 311 314 313 312 312 312 312 312 311 310 308 310 311 312 312 310 311 310 310 311 310 312 313 310 310 310 309 309 307 307 308 307 308 308 308 311 312 309 307 308 313 312 306 306 309 313 318 321 321 323 326 328 331 331
317 317 317 316 315 315 315 316 316 316 317 317 316 316 316 315 315 315 316 316 316 316 313 309 309 310 309 308 307 308 312 314 312 311 312 313 313 312 311 311 311 311 311 310 308 310 310 311 310 309 311 311 310 310 309 309 310 310 311 311 309 309 309 308 309 308 309 309 309 311 311 310 308 310 313 310 304 306 310 313 319 322 321 323 326 326 329 330
317 316 315 314 314 314 314 315 315 316 316 316 316 316 315 315 315 314 315 315 315 314 310 309 309 309 308 307 307 309 312 314 313 313 313 313 312 311 311 311 311 311 312 310 310 310 309 309 309 309 310 311 310 310 310 308 309 310 311 313 310 310 312 309 309 308 310 311 308 310 311 311 311 312 312 307 304 307 310 312 317 320 319 321 324 324 327 329
317 315 314 314 314 314 314 315 315 315 316 316 315 314 314 314 314 314 314 314 314 311 309 309 309 309 308 306 307 308 311 315 315 313 312 312 312 311 311 312 311 311 311 311 311 310 309 309 310 310 309 311 311 309 309 307 308 310 311 313 312 312 312 309 309 308 310 310 306 308 310 312 313 312 309 306 305 307 310 312 314 317 318 318 320 322 324 327
316 314 313 313 314 314 314 315 315 315 315 315 314 313 313 313 314 314 314 314 312 310 310 309 309 309 307 307 308 309 312 315 315 313 311 311 311 311 312 312 312 311 311 311 311 311 309 309 310 310 309 310 309 308 309 308 309 311 311 312 313 312 311 310 309 310 311 309 306 308 309 312 312 310 307 306 306 308 311 312 312 312 314 315 317 318 321 324
314 313 313 313 313 313 313 314 314 315 315 314 313 312 313 313 314 313 313 312 311 310 310 310 311 309 306 307 308 310 313 314 314 312 311 311 312 312 313 313 312 312 312 311 311 310 309 309 311 311 309 308 309 310 311 310 309 310 310 313 313 311 311 311 308 309 312 310 307 309 310 312 313 310 307 305 306 308 311 312 311 310 310 311 313 314 317 320
314 313 312 313 313 313 313 313 314 315 314 314 312 313 313 314 313 313 312 310 311 311 311 312 311 308 306 307 309 312 313 313 313 312 311 311 312 313 312 312 312 312 311 310 309 309 309 311 311 310 309 308 311 312 312 311 311 310 311 314 314 311 311 311 309 307 310 311 310 309 310 311 314 311 308 305 306 308 310 311 311 311 311 310 310 311 312 314
313 313 312 312 312 313 313 313 314 314 313 313 312 313 313 313 312 312 311 310 312 312 311 312 310 307 306 307 309 312 312 312 312 311 311 312 313 312 312 311 311 310 310 309 310 310 310 310 309 309 310 310 311 313 312 311 311 311 312 314 312 311 309 309 310 308 308 310 312 311 310 311 313 312 309 307 306 308 310 312 312 312 312 311 311 310 310 311
313 313 313 312 313 313 313 313 314 313 313 312 312 312 311 312 312 312 313 312 311 310 309 310 308 306 306 306 309 311 311 312 312 311 312 312 312 312 312 311 310 311 311 311 310 311 311 310 310 312 311 310 311 312 311 311 312 312 312 312 310 310 309 309 311 309 308 311 312 312 311 311 312 312 311 310 307 308 311 312 312 312 312 312 312 311 310 310
314 313 313 313 313 313 313 313 313 313 312 311 312 312 312 313 312 312 313 312 309 307 308 309 307 308 307 307 310 311 311 312 311 311 312 312 311 311 312 311 311 312 311 312 312 311 312 312 312 313 312 311 312 312 312 313 314 312 313 312 311 310 309 310 310 307 308 311 312 312 312 312 313 312 313 312 308 309 311 311 311 311 312 311 311 312 312 312
314 313 312 313 313 313 312 313 312 312 311 311 313 312 312 312 310 311 312 309 306 305 307 309 308 309 309 309 311 311 311 311 311 311 311 311 311 311 311 311 313 313 311 314 313 311 312 313 313 313 313 313 312 312 312 312 313 313 312 312 313 312 309 309 310 307 306 311 313 313 313 312 312 313 313 313 310 310 311 311 313 313 313 313 313 313 313 314
313 313 312 312 312 312 312 312 312 312 311 312 314 311 309 309 309 311 310 307 305 304 306 308 308 309 309 309 310 310 311 311 311 311 311 311 311 312 311 311 313 312 312 314 313 310 311 313 314 313 313 312 310 309 309 310 311 312 311 311 312 312 311 310 310 308 305 310 313 311 311 312 313 313 313 313 311 311 312 312 314 314 314 314 314 315 315 315
313 313 312 311 311 311 311 311 311 311 311 313 314 310 308 307 308 310 309 308 306 304 306 308 309 310 310 310 309 309 312 312 312 313 311 311 311 312 311 311 312 311 312 313 312 312 313 314 314 311 309 309 308 308 309 311 311 312 312 311 311 311 311 309 309 308 306 310 313 311 311 313 314 314 314 313 312 312 313 313 314 314 314 314 314 314 314 314
313 313 312 311 311 310 310 310 310 311 311 313 313 310 309 308 308 309 308 308 307 306 307 308 311 313 310 310 310 310 311 311 312 313 311 311 311 312 311 311 311 311 311 311 313 314 313 313 311 307 306 308 308 308 310 311 311 313 313 311 311 313 312 310 310 309 306 307 310 311 312 314 314 313 313 312 310 310 310 308 309 310 311 313 313 314 312 311
313 312 312 312 311 310 310 310 310 311 311 312 312 310 309 308 308 308 308 308 308 308 308 307 312 315 312 310 311 310 310 310 311 312 311 310 311 312 312 311 311 311 311 311 312 314 313 309 305 305 308 310 310 309 311 311 311 314 316 313 313 313 313 311 310 309 307 307 307 310 311 312 314 313 313 311 306 307 306 306 307 308 308 309 310 310 309 309
313 312 312 311 310 310 310 310 311 311 311 312 311 309 310 309 306 308 308 308 310 309 307 307 311 315 312 310 310 309 310 310 310 310 310 310 311 311 310 310 310 311 311 310 311 313 312 305 302 306 308 311 311 310 313 314 311 313 315 315 313 312 313 312 311 311 311 310 308 309 308 309 314 315 314 312 309 309 308 308 310 309 309 308 308 308 308 308
313 312 312 311 310 310 310 311 311 311 311 311 310 309 310 309 306 308 308 308 309 308 308 308 309 311 311 310 311 310 311 311 309 308 309 309 309 309 310 310 309 311 310 310 311 311 308 303 305 309 310 313 313 311 315 316 312 311 313 313 311 313 316 314 314 313 311 310 308 307 309 309 312 315 315 312 312 313 312 312 312 310 310 309 309 309 309 309
313 312 311 310 309 310 311 311 311 310 312 311 308 309 310 309 308 308 307 308 309 309 309 307 306 309 311 309 309 309 310 311 309 309 309 309 308 308 310 310 309 310 309 310 312 310 306 305 307 311 312 314 313 312 315 315 311 312 313 312 311 315 319 317 315 313 311 311 310 310 312 310 309 313 314 310 311 313 313 312 312 311 311 310 310 310 310 311
312 311 311 310 309 311 310 311 310 310 311 310 308 310 310 309 308 307 307 309 310 309 308 305 305 309 310 307 308 309 309 311 312 311 308 307 307 308 310 311 311 311 308 310 312 310 308 310 310 311 312 312 314 315 314 315 314 313 310 310 312 315 318 317 315 312 310 310 311 311 312 309 308 315 314 309 310 313 313 313 312 312 312 311 311 310 310 310
311 311 310 309 309 310 310 310 310 310 309 308 308 310 310 308 307 307 309 310 310 308 307 306 307 309 308 307 309 309 309 311 313 311 307 307 307 308 309 309 309 311 309 310 313 311 309 309 309 311 312 313 313 311 311 317 316 310 307 309 312 314 315 315 313 311 309 310 311 310 309 307 308 317 316 309 310 313 313 312 311 312 313 312 311 310 309 308
312 311 310 309 310 310 310 310 310 309 308 309 309 310 310 308 307 307 308 310 311 308 306 307 309 309 308 308 309 309 310 311 310 310 309 308 308 307 307 307 308 312 314 314 313 311 307 307 308 311 311 310 308 305 308 314 312 308 311 313 313 313 313 312 310 309 309 310 310 307 306 308 307 314 317 311 310 312 312 312 312 312 313 312 311 310 308 307
312 311 309 309 310 310 311 310 309 308 309 310 310 309 309 309 309 308 309 311 311 308 306 307 309 309 308 309 310 310 310 311 310 310 310 309 308 308 308 309 310 313 315 314 313 311 309 309 310 310 308 307 308 307 306 307 307 309 315 314 313 313 312 311 309 309 310 311 308 304 304 307 307 310 313 310 310 310 310 312 312 312 312 313 313 311 308 307
311 310 309 310 311 310 311 312 309 308 310 310 310 309 308 309 308 308 308 310 311 309 308 308 308 309 309 311 312 311 312 312 310 311 311 311 309 310 311 312 313 313 312 312 314 313 313 311 310 309 307 308 312 311 307 307 309 311 314 312 312 312 312 312 311 310 311 310 306 304 304 307 308 310 310 310 311 309 309 311 311 311 311 313 315 314 311 309
310 310 309 310 311 310 311 311 308 308 311 310 309 309 310 309 309 310 308 309 311 310 309 309 308 309 310 310 312 312 313 312 311 311 312 312 311 311 312 313 314 316 315 314 315 313 313 313 311 311 310 309 312 312 310 310 310 311 314 313 311 312 312 312 311 308 309 309 305 303 305 308 310 310 311 311 311 309 308 309 310 310 310 311 312 312 312 309
310 310 310 310 311 310 311 311 308 310 311 308 307 310 310 310 310 311 309 309 311 309 309 310 309 309 310 312 312 312 312 312 310 311 311 312 311 311 312 310 312 317 317 315 314 314 315 314 312 312 311 310 311 312 312 313 312 312 315 314 311 312 312 312 310 309 310 309 305 303 306 310 310 310 311 310 309 309 306 306 307 307 307 307 308 310 310 308
310 310 310 311 311 311 312 311 310 312 310 307 308 309 310 310 310 311 309 309 310 309 309 310 310 310 311 313 313 312 313 313 312 311 312 312 311 312 312 310 310 315 316 313 312 313 314 312 311 310 309 310 312 312 311 313 312 310 310 311 311 312 311 309 307 308 308 307 308 307 309 311 311 310 311 308 307 308 306 306 307 308 307 307 312 314 312 309
311 311 311 311 311 311 311 312 312 311 308 307 309 309 310 312 312 312 310 309 310 310 309 310 311 312 312 313 313 312 312 314 313 313 312 312 313 312 313 312 311 313 314 313 313 312 311 311 312 311 308 308 311 310 310 313 313 310 309 310 310 312 314 309 304 304 305 308 309 309 310 311 309 309 312 310 309 309 308 307 308 310 311 312 317 319 314 311
311 311 311 311 311 312 311 313 314 310 308 309 308 309 313 314 313 314 311 309 310 309 310 311 311 312 311 312 313 312 313 314 313 313 313 312 312 312 313 312 312 312 312 313 314 314 313 312 312 314 312 309 308 309 310 312 312 310 311 311 308 309 312 310 308 307 307 309 309 308 309 309 307 308 312 311 309 309 309 308 308 310 313 314 317 316 312 311
311 311 312 312 312 312 312 313 313 309 308 310 309 312 317 315 313 316 314 309 309 311 312 312 312 312 312 312 313 312 313 314 312 312 313 312 312 313 312 312 312 311 310 311 313 316 317 313 311 312 313 310 310 312 311 310 310 310 311 310 309 310 310 308 309 310 309 309 310 308 306 306 307 309 311 310 310 311 310 309 309 309 311 314 314 312 312 311
312 313 314 313 312 312 313 313 311 309 308 309 309 311 317 319 315 315 315 311 312 312 311 313 312 312 311 312 312 312 312 313 312 312 313 312 312 312 311 312 314 310 307 310 312 315 318 316 312 311 312 312 311 312 312 312 309 307 307 308 310 311 310 309 309 309 309 309 309 308 305 307 310 310 310 311 310 310 309 310 311 310 311 313 312 311 313 313
313 315 316 313 313 314 313 312 310 309 309 310 310 311 316 320 317 313 313 314 315 314 314 316 315 311 312 314 313 312 312 313 312 312 313 312 311 310 310 311 313 310 308 312 314 314 313 314 314 312 311 312 311 312 315 314 310 307 307 308 310 309 308 309 308 307 309 308 308 308 307 308 310 309 309 309 308 308 309 309 312 314 313 312 310 311 313 313
313 317 315 313 314 313 312 312 311 311 311 311 313 316 318 318 316 314 313 312 314 314 315 318 316 313 314 313 311 312 312 313 312 312 312 311 310 311 310 310 311 311 310 312 314 314 312 311 314 313 312 312 313 311 310 313 313 311 309 309 312 311 309 311 310 307 307 307 307 307 307 309 312 309 307 308 307 308 307 307 312 315 313 311 310 311 312 312
314 316 313 311 314 313 311 313 313 314 315 312 312 316 317 315 314 314 312 312 316 315 314 318 319 318 317 314 313 313 312 312 312 312 313 312 311 312 313 311 310 309 311 312 313 315 315 314 314 313 312 312 312 308 306 309 313 312 310 312 312 312 311 311 312 309 305 304 305 306 307 311 312 308 306 306 306 305 304 305 309 311 310 311 312 311 312 312
314 314 310 310 313 313 312 314 314 315 316 313 314 315 314 316 316 314 311 314 317 316 318 321 317 315 317 318 316 313 311 313 313 312 314 313 311 313 313 314 311 309 311 311 312 314 315 316 314 311 311 311 309 309 308 309 312 310 310 312 312 312 314 312 310 311 308 306 307 307 308 311 314 310 308 307 306 305 305 307 308 308 310 311 311 311 311 311
312 310 309 309 311 313 313 313 313 314 314 313 316 315 313 315 316 313 312 316 317 315 320 323 315 312 318 319 316 313 312 313 313 312 315 315 312 311 311 314 312 310 312 314 313 311 312 315 315 312 312 312 311 311 311 311 311 310 311 312 312 314 314 309 307 309 309 310 310 310 310 310 313 314 312 310 309 309 308 309 308 309 312 311 311 312 312 311
310 310 310 308 309 312 314 313 312 313 313 313 316 316 315 314 314 313 314 317 316 315 318 319 313 314 319 318 315 314 313 315 316 314 315 316 314 311 313 314 311 309 319 324 321 312 312 316 315 313 314 314 314 314 314 314 312 311 314 314 313 313 312 310 309 309 310 312 311 311 311 309 310 312 311 310 310 309 308 309 308 308 311 312 312 313 313 313
310 310 309 308 309 311 312 313 313 313 312 313 314 315 316 316 314 313 314 315 313 314 317 315 313 317 319 315 314 314 313 315 317 314 314 318 316 312 312 314 313 314 321 322 317 312 315 317 314 313 315 314 314 316 317 318 315 314 316 315 313 312 313 313 312 310 311 311 309 311 313 311 310 311 310 309 311 311 310 310 308 308 311 314 314 313 313 313
308 309 308 309 312 311 311 313 314 313 312 311 312 314 316 317 316 313 313 314 313 314 316 315 314 317 316 313 313 314 314 315 314 313 315 317 315 311 309 312 314 315 317 314 312 314 315 314 313 314 315 316 317 318 317 317 316 316 317 315 312 312 314 314 313 312 314 312 310 313 315 313 311 311 312 312 312 313 311 310 310 310 311 313 313 312 311 312
305 307 306 307 310 311 312 313 313 313 312 310 312 314 315 316 317 316 314 313 313 315 318 317 315 314 314 313 313 314 314 314 314 314 315 316 315 313 312 313 312 312 313 311 313 317 313 311 315 314 314 316 317 317 317 316 316 317 316 314 312 312 313 314 314 314 315 313 312 315 316 313 311 311 312 313 313 314 312 310 309 310 311 311 311 310 311 311
302 304 304 305 307 310 311 313 313 314 312 311 313 315 315 316 316 316 315 314 314 315 317 320 318 316 315 314 314 315 314 314 315 315 314 315 316 316 315 314 312 312 314 312 313 317 314 313 317 314 311 313 313 313 316 316 315 316 316 314 313 312 313 313 314 314 314 314 314 317 318 315 312 311 312 313 313 312 311 309 310 310 312 312 311 311 312 312
301 303 303 305 306 307 310 312 313 315 313 312 313 314 314 315 315 316 315 315 317 316 315 319 319 316 313 313 317 318 314 313 316 315 313 314 316 316 316 316 314 313 314 311 310 313 311 313 317 314 310 312 313 311 313 314 315 314 314 314 313 312 313 313 313 314 314 314 314 315 317 315 312 311 312 313 312 310 309 310 310 310 311 311 311 311 313 313
299 299 300 304 306 306 309 311 312 314 314 312 312 313 314 314 314 316 315 314 316 317 316 317 317 314 311 312 317 318 315 316 317 314 312 314 315 315 317 318 315 313 313 313 313 313 310 312 314 312 310 313 312 311 312 314 315 314 313 313 312 312 312 312 313 314 314 314 314 314 315 313 311 310 312 312 311 310 310 310 312 312 312 311 311 311 312 312
298 298 298 303 306 305 307 310 311 313 314 312 312 313 314 314 313 315 316 314 314 315 316 316 316 315 314 314 316 318 317 318 316 312 312 315 316 316 316 316 315 313 312 313 315 314 313 313 313 310 310 313 309 309 313 313 312 312 312 313 312 312 312 312 313 314 313 313 314 313 313 312 311 311 310 311 310 310 310 310 312 314 313 311 310 311 311 310
Wind_Speed
31 30 29 26 26 27 25 23 22 22 22 22 21 21 21 20 20 21 20 20 20 19 18 18 20 21 21 20 17 17 14 9 6 6 11 17 16 12 13 17 17 12 12 11 8 7 5 5 5 5 6 4 1 0 2 1 1 2 2 3 2 2 2 4 7 4 1 5 8 7 9 9 7 5 2 3 3 1 3 3 1 1 2 0 2 5 12 14
31 29 27 26 26 28 27 24 23 24 23 21 21 21 20 20 20 20 20 20 20 19 19 19 21 22 22 20 16 15 11 6 4 7 17 20 16 16 16 18 19 15 11 11 11 10 8 5 6 6 4 2 0 0 2 1 1 1 1 2 3 2 1 1 5 4 1 4 10 8 6 5 4 6 4 4 5 3 4 5 3 4 5 5 2 6 14 14
32 30 28 27 27 29 29 27 26 25 23 21 21 20 20 20 20 20 20 20 19 19 20 21 22 22 21 18 15 13 9 3 3 11 21 20 19 21 20 19 17 15 12 12 13 13 10 6 9 7 3 2 1 1 2 0 1 1 2 4 3 2 1 1 2 4 1 2 9 9 4 3 1 3 4 3 3 4 7 6 5 7 8 8 5 9 15 14
32 30 29 28 27 29 29 28 27 25 23 21 20 20 20 20 21 21 20 20 19 19 20 22 23 22 20 17 14 13 9 2 3 14 20 17 20 22 23 23 18 14 13 12 12 13 10 6 9 5 3 3 1 1 2 1 1 2 2 2 3 2 2 2 1 2 2 1 6 9 6 5 3 2 4 4 4 5 8 7 7 9 9 10 9 12 17 16
31 30 28 28 28 28 28 27 26 24 22 21 20 20 20 21 21 21 20 20 20 19 20 22 23 21 20 17 15 16 11 2 6 14 16 15 17 18 22 24 19 14 13 13 10 10 9 7 7 3 3 4 3 3 2 1 1 3 0 3 3 1 2 3 1 2 2 1 5 9 8 6 6 3 4 6 7 3 1 2 4 5 2 8 11 13 18 19
31 30 28 29 29 28 27 26 25 24 22 21 22 20 21 21 22 22 20 20 20 20 20 22 22 21 20 18 19 19 11 1 4 9 16 17 18 18 21 22 19 14 13 13 9 9 8 7 8 5 4 3 4 4 2 1 2 2 2 1 2 1 0 2 2 2 2 4 8 8 6 6 7 4 1 6 9 1 4 3 4 4 2 6 12 14 16 18
32 30 29 32 31 27 26 25 24 23 22 22 22 20 21 21 21 21 19 20 20 20 21 22 22 21 22 21 19 14 5 5 3 7 13 14 17 19 22 20 18 15 14 13 10 9 8 8 9 5 4 3 4 3 3 2 2 1 3 3 2 2 2 1 1 2 2 3 5 4 5 6 7 5 3 6 9 1 3 3 4 2 2 6 11 13 16 18
32 30 30 32 31 27 25 25 24 22 23 24 21 20 22 20 20 20 20 20 20 20 20 21 22 22 25 23 15 7 5 8 7 8 7 9 12 18 19 17 17 16 16 15 13 10 8 9 9 4 3 2 3 5 4 4 1 1 4 5 3 2 2 2 1 3 1 2 3 4 5 3 3 3 1 6 6 1 1 2 3 3 3 5 8 12 14 16
32 32 31 31 30 27 25 24 24 23 24 24 21 20 21 20 20 20 20 20 20 20 19 21 23 24 26 20 10 5 8 12 11 8 4 5 10 15 17 15 17 18 16 16 14 11 9 7 7 4 3 1 3 6 4 5 3 2 5 7 5 3 3 2 2 2 2 2 2 6 6 2 2 1 4 4 1 2 2 1 2 3 4 6 7 10 12 14
33 33 32 31 30 27 24 24 24 24 23 22 21 20 20 20 20 20 20 19 19 18 19 22 23 26 24 15 9 7 9 13 11 7 4 5 10 14 16 14 17 18 14 12 12 11 9 6 6 3 2 1 2 3 1 3 2 6 9 8 7 5 2 1 3 2 1 3 1 5 6 2 2 2 4 3 4 3 2 2 1 3 6 6 7 8 10 11
34 34 33 32 30 27 25 24 24 24 22 22 22 20 19 19 19 19 18 18 17 17 20 23 25 27 20 12 10 7 8 10 9 8 8 8 11 13 15 13 16 19 15 10 11 15 9 6 9 3 0 4 5 3 1 1 4 9 12 11 7 5 5 2 3 2 1 3 2 1 5 2 2 3 3 4 3 1 2 3 2 4 5 5 6 6 7 9
35 35 34 32 31 28 26 26 25 23 23 22 21 20 19 18 18 17 16 16 16 18 21 23 27 26 14 8 9 5 5 8 8 10 11 11 12 13 13 11 13 17 16 9 11 16 10 8 13 4 1 6 7 3 2 2 3 7 6 8 6 4 5 3 2 0 3 2 1 1 3 3 6 6 3 4 1 1 2 3 3 5 5 4 5 5 6 8
36 35 33 32 31 30 29 28 25 25 24 22 20 20 19 17 16 16 16 15 16 19 21 23 27 22 9 5 7 6 6 6 8 10 12 13 12 12 11 10 11 14 15 10 10 14 11 10 12 4 1 4 4 2 5 4 1 4 1 3 5 5 3 3 2 2 1 2 2 2 3 4 7 6 3 4 1 0 2 4 4 4 4 4 4 5 6 8
36 33 32 32 32 32 31 28 26 25 23 21 21 20 19 16 16 16 15 15 17 19 20 23 26 17 6 3 4 9 9 7 9 11 13 13 11 11 9 9 11 12 11 10 9 11 12 10 9 6 2 2 4 4 6 4 1 4 3 1 3 5 4 3 3 2 2 2 2 3 4 2 4 3 3 2 0 2 4 4 4 4 4 4 4 5 7 8
35 33 32 31 32 32 31 29 26 25 23 23 21 19 18 16 15 14 15 16 17 18 18 20 22 11 4 3 3 9 11 8 10 12 13 14 13 10 8 9 10 9 9 7 8 10 12 12 8 5 2 2 5 7 5 4 1 2 4 3 2 3 3 3 3 2 1 1 1 2 4 4 2 3 4 2 1 3 5 4 3 4 5 5 5 6 7 7
34 33 32 31 32 32 32 30 26 25 24 22 20 18 18 16 15 14 14 16 15 18 17 16 18 9 2 3 3 7 9 7 11 13 13 15 12 9 10 11 8 7 8 8 10 13 10 8 3 1 3 2 5 7 6 4 3 0 2 3 3 3 4 3 2 2 2 1 1 2 3 2 0 2 3 1 1 3 3 5 4 5 5 5 5 5 6 6
35 33 31 31 32 32 33 30 27 25 22 22 20 19 17 15 16 15 14 14 14 18 15 10 15 8 1 2 3 5 7 7 12 14 14 14 10 11 14 9 6 9 11 11 10 7 4 4 1 1 3 2 3 6 7 6 6 3 1 1 1 3 4 3 3 1 3 1 3 1 3 5 1 2 3 2 1 0 3 5 6 5 4 4 4 4 6 6
35 33 31 32 33 33 33 29 26 24 22 22 19 17 17 17 17 15 15 16 15 14 7 5 10 6 2 5 4 4 7 10 14 14 15 14 10 13 12 6 6 11 11 8 4 1 2 2 0 3 3 2 4 7 8 6 7 8 5 3 2 2 3 2 3 2 0 2 4 2 4 10 7 5 5 4 2 3 6 5 5 5 5 4 4 5 6 6
35 32 31 32 33 34 32 29 26 24 24 21 19 21 21 18 14 12 13 14 11 6 3 6 8 3 2 6 3 4 10 14 13 11 13 12 11 11 7 7 8 8 9 6 3 1 2 2 2 4 6 6 8 9 5 3 6 9 7 4 5 5 3 1 2 2 0 3 6 6 7 10 10 9 8 4 3 4 7 6 6 6 5 5 5 6 6 7
34 32 32 32 33 33 32 29 26 25 24 23 27 24 16 13 10 7 8 6 3 0 1 8 7 0 1 2 6 12 13 11 7 6 12 13 13 10 5 4 5 3 5 6 4 2 1 4 6 7 8 9 9 4 2 3 4 8 6 3 4 4 3 1 2 3 1 3 6 6 7 10 10 10 11 5 3 5 9 8 8 7 6 6 6 7 7 8
34 33 32 31 31 31 31 29 26 26 25 27 28 14 6 10 8 9 10 3 1 3 3 5 6 1 1 2 11 14 9 5 3 4 12 13 13 10 2 1 7 5 2 1 3 3 2 6 7 5 4 6 6 4 5 5 5 7 6 5 3 2 2 2 1 3 1 3 2 1 5 11 12 11 11 7 5 8 10 10 9 8 7 5 6 8 7 6
34 33 32 31 29 28 29 27 26 27 27 27 19 4 2 5 6 17 16 4 1 2 2 4 6 2 2 3 9 7 4 5 4 3 8 10 8 6 2 3 8 6 1 2 4 4 5 7 5 4 5 7 6 3 4 6 5 5 3 5 4 2 3 3 1 2 1 2 1 1 4 10 11 10 11 9 9 9 8 7 7 6 6 6 6 7 6 5
34 33 33 31 29 27 26 25 26 28 27 25 15 5 4 6 17 26 12 4 3 1 1 3 3 3 2 3 5 2 4 5 5 5 6 8 4 2 5 6 6 5 4 7 7 6 6 3 3 7 8 9 5 1 5 7 3 2 2 4 3 3 3 2 4 3 1 1 1 0 4 8 8 8 9 7 6 6 5 6 7 6 7 8 7 5 4 7
34 34 33 30 28 26 25 26 26 26 26 21 15 10 9 15 27 25 6 4 3 1 1 1 1 4 2 2 4 3 3 2 3 6 6 7 5 2 5 5 5 6 6 7 7 6 3 2 1 6 7 8 7 4 6 6 2 0 2 3 2 5 3 1 5 5 1 1 1 2 5 6 4 5 6 2 1 4 4 5 6 6 7 8 7 6 6 8
35 34 32 30 26 24 27 26 22 24 23 16 15 12 13 20 24 16 4 3 2 1 1 1 1 3 4 3 3 3 3 2 1 2 4 6 5 3 3 2 2 6 6 5 5 4 1 2 2 6 5 5 7 7 6 6 4 2 4 3 1 6 6 4 7 6 3 3 1 2 5 3 0 4 5 0 1 4 2 3 5 4 4 5 5 5 5 7
36 33 32 28 26 29 27 17 17 22 18 13 17 15 14 20 18 9 4 2 3 3 3 4 1 4 6 2 1 3 4 2 2 3 3 5 3 3 4 1 1 3 5 5 3 1 2 1 2 5 7 6 6 6 5 4 4 3 2 2 2 6 8 8 8 4 2 2 2 1 4 3 1 3 2 1 4 6 3 4 4 2 2 2 3 3 3 4
35 32 31 28 30 33 20 10 19 22 10 12 21 17 15 19 13 5 2 2 4 4 4 2 1 5 8 1 1 5 4 4 3 3 2 2 1 1 3 4 1 2 2 3 3 1 4 4 2 3 7 7 7 6 5 6 6 3 0 2 6 8 8 8 6 2 0 1 1 1 2 3 4 2 0 2 5 7 5 3 1 1 1 1 2 2 3 3
34 32 30 29 33 29 13 12 24 20 9 14 21 18 17 17 8 2 3 3 3 3 3 1 1 5 5 1 2 2 0 2 5 3 2 2 1 1 3 5 4 4 2 2 5 1 2 5 6 6 6 6 5 2 3 5 3 1 0 2 5 6 6 5 3 2 2 1 3 1 3 4 5 2 1 3 3 6 5 2 1 1 1 2 2 3 3 3
34 32 29 30 34 24 10 14 23 21 15 18 21 19 19 14 5 1 2 3 3 2 1 2 4 4 2 2 3 3 1 2 1 3 1 2 2 2 2 3 5 9 3 1 3 1 1 2 2 3 5 4 2 3 1 1 1 3 5 5 5 5 5 3 2 3 2 3 4 2 2 4 4 2 1 1 2 5 3 2 1 1 1 1 2 3 3 3
33 31 29 33 33 21 11 11 21 25 18 16 20 21 18 9 4 5 4 4 5 3 1 3 3 4 6 7 3 2 2 2 1 3 2 1 3 4 1 1 4 8 4 5 5 2 1 1 2 1 0 2 4 5 3 2 4 8 7 7 8 4 3 3 2 2 2 3 2 2 2 3 3 2 2 2 1 2 1 3 2 1 2 1 1 2 3 3
32 30 32 36 31 22 12 7 21 26 15 16 22 18 12 4 1 6 5 2 5 3 2 3 3 6 12 13 5 2 2 2 1 5 5 2 3 3 3 2 3 4 2 3 4 2 2 2 0 1 1 2 5 6 5 2 4 5 4 6 6 3 1 2 2 0 4 4 2 2 3 3 4 3 1 1 2 2 1 3 4 3 2 2 1 1 2 3
32 31 35 35 29 24 12 5 21 24 15 20 21 9 6 4 3 6 4 3 5 5 5 5 4 8 13 11 6 4 4 3 2 5 6 4 3 4 3 4 5 4 4 5 3 2 3 2 1 2 1 3 3 6 5 1 1 1 4 7 6 3 2 3 2 2 4 2 2 1 2 3 6 5 5 5 4 4 4 2 1 0 1 1 1 2 3 3
32 32 36 32 27 25 13 9 23 24 20 23 15 2 3 5 7 5 5 4 2 2 4 5 3 7 11 8 5 4 3 2 3 3 2 2 4 4 0 1 3 2 4 5 5 4 3 1 1 3 2 3 2 5 5 4 4 5 7 7 5 5 4 5 3 1 3 0 1 1 1 3 4 5 8 9 3 3 3 3 3 3 4 4 4 4 4 3
32 35 36 29 25 25 15 13 23 24 23 19 8 4 6 7 6 5 6 5 1 3 4 6 7 8 8 6 5 6 2 2 3 2 2 3 5 5 2 2 2 1 3 3 3 5 4 3 4 3 3 2 2 2 1 4 4 3 1 1 4 4 3 4 3 1 2 2 2 1 2 3 2 1 3 5 1 0 2 3 3 4 4 4 5 4 3 1
34 35 33 27 24 25 17 13 19 25 22 11 4 7 9 9 5 5 7 5 2 3 4 8 10 8 4 1 1 4 1 1 3 2 3 6 6 7 7 6 5 2 4 5 2 1 2 1 1 1 1 1 2 2 2 4 4 1 2 1 2 1 2 2 1 1 1 1 2 2 3 3 2 3 4 2 2 3 3 2 3 4 2 2 3 2 1 1
34 31 28 26 25 26 21 13 16 23 16 5 6 9 7 5 3 4 6 5 4 8 10 8 7 6 4 1 0 3 2 2 4 3 3 3 3 7 8 5 5 6 5 5 3 1 2 1 2 1 1 1 1 2 2 0 2 2 2 3 2 1 4 4 1 1 0 3 2 2 3 3 2 6 3 2 2 3 3 3 3 2 1 1 2 1 2 1
31 25 21 22 25 26 23 15 16 20 9 3 9 9 2 1 1 2 5 5 7 11 12 8 4 4 6 4 4 6 3 3 3 3 4 3 2 5 6 3 4 8 5 1 1 2 3 3 2 1 2 2 2 0 2 2 0 2 3 5 3 1 1 2 1 1 0 3 1 1 4 3 2 3 1 1 3 4 4 3 2 2 1 2 2 1 2 1
26 20 14 19 25 25 22 18 17 15 3 3 9 6 1 1 0 2 4 5 8 9 9 7 3 3 6 7 6 7 7 5 4 4 4 4 3 6 8 4 3 6 3 0 1 1 2 3 2 1 1 2 1 1 2 2 2 1 1 3 2 2 2 1 2 2 2 3 2 2 2 3 5 4 2 1 5 5 4 3 2 3 4 4 2 2 3 2
21 13 7 16 25 23 22 20 15 8 3 6 9 5 2 2 1 1 1 4 6 5 6 5 1 1 4 7 8 8 7 6 6 5 3 4 3 4 7 4 2 4 2 1 2 1 2 2 2 1 1 0 0 2 4 4 2 2 1 2 1 1 2 2 2 1 2 3 1 1 1 2 5 5 5 4 3 1 3 3 3 4 4 3 2 3 3 3
13 6 4 16 25 22 23 19 9 5 5 6 5 3 2 2 2 1 2 1 2 1 4 4 3 4 4 3 6 8 7 5 8 6 3 5 4 2 5 4 4 4 2 2 1 2 1 1 2 2 1 2 3 2 4 5 4 3 4 5 3 1 1 1 1 2 1 3 2 2 2 2 2 3 6 5 2 2 1 2 3 2 2 1 1 3 4 4
5 3 3 16 28 27 24 14 4 6 5 2 2 2 1 2 4 3 1 1 1 1 1 3 4 5 5 4 5 6 5 5 8 6 3 5 6 4 4 6 7 8 3 2 2 2 1 1 4 4 2 4 2 1 2 2 0 2 3 6 6 4 3 3 3 1 1 1 1 1 2 2 1 1 4 3 1 1 1 2 2 1 1 2 2 3 4 4
4 4 3 17 34 31 17 7 3 4 2 1 3 3 2 3 5 5 3 2 2 2 1 2 2 3 4 4 4 6 7 6 7 7 4 6 8 4 2 2 7 11 8 4 2 1 1 3 4 3 2 2 2 2 1 3 2 1 1 2 3 3 4 5 5 4 3 1 1 1 2 2 1 1 2 3 1 1 1 2 3 1 2 3 3 4 3 2
4 4 2 16 33 26 10 6 5 2 2 2 2 3 3 3 4 4 4 2 1 1 1 1 1 1 2 3 3 8 10 6 7 9 5 4 5 1 2 1 7 11 8 3 2 2 1 3 4 2 1 0 1 0 1 1 1 2 3 2 2 2 2 1 2 3 4 4 3 2 4 3 1 1 2 3 2 2 2 4 4 2 4 4 4 5 4 2
3 3 2 9 24 19 8 8 8 6 5 3 3 3 2 1 3 5 6 4 2 2 3 2 1 1 2 2 4 9 11 5 6 7 3 3 3 1 2 2 7 10 6 3 5 6 3 3 5 4 3 2 1 2 2 2 3 4 3 3 3 3 5 3 2 2 3 5 6 5 6 3 1 0 2 2 2 3 2 3 4 3 5 6 5 5 4 3
2 3 2 4 11 9 5 5 6 7 7 6 6 6 3 2 1 3 6 4 2 3 4 2 1 2 3 3 3 5 7 3 2 4 2 1 1 2 2 2 4 7 3 2 2 6 4 3 5 6 6 6 6 7 5 4 4 3 3 5 7 7 8 4 3 3 5 5 7 7 6 2 1 1 2 2 2 2 2 3 3 3 3 5 5 5 4 3
1 2 1 1 2 3 2 1 2 6 8 8 6 5 6 5 1 1 2 4 3 2 2 2 2 3 3 5 5 6 8 1 1 4 5 3 2 1 2 1 0 2 0 2 2 5 3 1 5 9 9 8 8 7 3 4 6 7 7 8 8 8 7 4 3 4 5 4 5 9 6 2 3 4 4 4 3 3 2 3 4 4 3 4 4 4 3 2
0 1 3 2 1 3 2 1 4 6 8 10 7 5 7 7 4 2 1 1 4 4 2 2 4 5 6 8 7 6 8 3 1 4 4 2 1 1 2 1 2 1 2 0 2 4 3 3 7 11 9 4 2 2 3 6 8 9 8 9 9 8 8 8 8 9 5 5 7 11 8 7 7 6 6 5 4 3 4 5 5 4 4 3 3 2 2 3
0 1 0 1 0 3 4 6 9 8 9 10 5 5 9 7 6 7 3 0 2 4 1 1 4 8 10 12 9 5 6 5 2 3 3 2 3 2 1 1 1 1 2 1 1 2 4 6 6 9 8 1 4 2 4 6 5 5 8 12 12 11 11 13 15 11 9 8 12 8 9 12 10 8 7 7 5 5 5 5 3 3 4 3 3 4 5 5
0 1 1 3 1 2 3 7 11 10 12 12 5 5 10 12 10 6 3 4 4 4 3 4 7 8 8 10 8 7 9 8 5 4 3 3 3 3 2 2 0 1 2 3 2 1 4 4 3 6 7 2 4 1 2 4 4 4 8 12 13 13 14 15 15 13 12 12 11 3 6 11 10 10 9 6 3 1 1 2 2 3 5 5 6 7 7 6
0 0 0 1 2 1 2 5 10 10 10 10 8 6 8 12 12 6 2 5 7 5 3 4 7 7 8 9 6 6 11 11 8 8 8 7 5 3 4 4 3 1 1 3 3 1 3 3 3 4 5 2 2 2 1 2 3 4 6 9 11 13 14 15 15 14 10 10 10 4 4 9 6 8 6 4 3 2 1 2 4 5 6 7 8 8 7 6
0 1 0 1 2 2 2 4 6 8 9 10 10 8 8 13 13 9 3 2 4 7 6 6 9 7 5 7 5 5 9 8 8 13 15 12 8 5 3 3 7 8 4 3 3 1 3 2 3 3 5 3 2 2 2 3 3 1 4 9 13 14 14 12 9 7 9 12 12 7 8 8 5 8 5 4 3 4 5 6 5 5 6 8 9 9 8 7
1 1 1 1 2 2 3 3 4 7 7 8 9 9 8 10 10 9 6 1 1 3 5 9 13 8 4 9 7 4 5 5 4 7 8 5 4 4 2 3 8 10 8 6 3 1 4 5 3 4 7 2 2 0 4 5 2 4 7 12 17 15 10 6 3 4 10 12 10 9 11 7 6 8 8 7 6 7 8 8 7 6 7 8 9 9 8 7
Wind_Direction
183 180 179 184 190 190 188 187 190 191 186 185 188 187 187 186 187 188 187 191 192 195 200 196 196 197 200 209 205 204 208 208 228 225 234 249 250 254 265 264 267 267 250 243 237 217 191 187 174 147 145 136 7 241 144 24 269 222 183 177 185 174 188 181 174 173 112 143 156 172 192 189 165 158 161 165 184 124 154 205 198 177 220 17 65 125 143 146
182 179 179 183 190 192 192 194 196 195 186 183 185 185 187 186 186 186 184 188 189 190 191 185 186 189 195 202 194 191 193 202 264 265 246 246 253 259 260 258 257 260 252 230 222 207 195 193 166 150 151 160 7 278 175 260 270 171 135 189 200 171 133 175 166 150 75 142 148 163 193 202 173 152 167 195 172 160 198 200 206 220 194 175 167 150 150 152
182 180 180 182 189 194 195 197 198 193 184 181 184 184 186 185 185 185 183 186 187 187 187 185 185 188 193 195 191 187 177 172 315 262 245 240 250 256 254 255 255 254 245 227 220 212 217 199 168 159 145 173 122 221 208 207 265 139 193 204 168 146 106 32 177 141 98 132 145 152 172 198 148 134 172 201 165 185 218 205 198 221 207 179 157 156 158 160
181 179 179 182 189 192 192 193 191 185 180 179 182 184 184 182 185 186 184 184 185 186 185 186 187 190 191 187 190 179 149 77 274 240 241 239 246 252 249 249 251 249 235 223 223 218 223 188 166 165 157 176 72 240 211 105 248 149 206 226 111 137 142 136 199 125 120 198 153 139 148 170 135 140 181 179 181 209 228 224 216 225 208 173 152 160 166 167
178 175 176 181 188 188 187 185 179 176 176 177 179 182 181 180 184 186 186 184 182 184 181 182 186 188 184 177 181 168 137 77 238 222 228 239 251 251 241 241 243 239 222 216 218 207 206 176 161 156 168 179 154 199 192 45 296 143 126 359 74 170 144 124 161 133 142 176 149 142 152 153 130 162 189 196 215 221 226 246 249 263 225 161 155 161 168 175
177 174 174 180 187 185 181 177 173 177 177 179 181 180 181 181 183 183 185 182 179 183 179 178 183 179 175 173 173 167 153 200 227 191 206 238 262 251 231 229 232 224 212 209 200 184 185 179 180 177 170 175 172 185 146 70 285 169 144 52 76 317 66 117 140 156 183 163 155 152 143 130 149 177 150 218 231 60 62 17 338 326 4 134 146 157 171 181
176 174 174 179 186 181 175 176 177 179 179 182 181 178 182 182 183 183 181 180 179 181 178 178 178 172 169 166 164 167 194 262 248 168 198 244 260 238 218 214 218 210 202 196 181 175 180 188 192 181 157 161 179 184 132 131 275 194 136 134 112 355 29 59 130 152 218 167 137 132 133 145 179 174 98 233 236 136 82 20 8 10 99 136 150 166 178 186
175 174 174 178 183 176 170 174 174 174 179 182 179 179 182 180 181 180 177 178 179 178 179 178 173 170 166 159 155 173 232 248 233 191 218 261 237 215 202 200 206 199 194 192 185 177 175 184 187 179 171 183 166 160 159 156 192 176 133 142 137 46 60 54 116 136 157 118 103 143 149 149 174 137 159 233 227 176 352 20 60 96 125 168 176 178 182 189
173 171 170 173 177 173 167 167 168 172 177 178 177 179 180 177 177 175 174 177 177 177 176 174 171 168 166 161 160 183 213 226 220 199 237 249 205 199 190 193 198 191 190 195 194 179 176 186 187 192 179 185 160 153 183 194 190 121 123 135 132 103 85 88 97 104 126 106 154 167 136 95 114 102 245 222 113 13 321 59 117 136 164 194 193 188 187 192
173 169 167 169 172 170 167 166 168 171 173 173 172 174 175 175 174 172 173 173 174 176 171 170 169 167 168 170 171 185 209 216 211 203 228 202 191 191 186 191 191 187 184 190 196 184 189 193 172 177 140 116 157 144 196 220 157 106 115 109 105 109 96 55 106 92 127 94 294 179 132 95 132 238 241 135 52 343 239 169 150 195 199 199 197 196 193 198
172 169 167 170 172 172 169 168 170 170 170 170 169 170 169 171 173 172 173 172 172 173 168 168 168 169 174 180 181 186 198 200 200 202 210 195 192 194 191 192 189 188 182 180 200 197 205 189 152 136 209 149 134 110 29 222 112 120 126 103 86 107 97 53 110 104 294 103 337 197 128 97 125 230 216 104 49 334 201 188 183 220 218 203 199 198 199 207
172 170 169 171 175 176 173 170 169 170 170 168 166 166 167 168 171 171 170 170 171 169 166 168 170 171 176 192 197 191 174 183 188 192 196 189 191 195 195 196 192 195 189 184 208 205 215 187 157 127 320 155 137 136 136 129 118 129 137 114 109 135 105 42 83 343 304 128 339 293 155 192 195 214 153 94 2 68 178 202 192 219 226 214 206 206 209 208
172 170 170 172 174 174 173 169 168 171 170 164 163 167 168 166 167 170 168 167 168 166 166 169 172 174 181 200 206 204 187 179 179 187 187 183 187 192 197 201 195 197 199 203 214 208 211 188 160 114 23 143 128 157 121 97 131 137 150 126 136 174 148 33 2 298 284 129 324 259 222 210 196 212 115 84 324 163 198 201 198 219 220 224 217 218 219 209
172 172 172 173 172 171 170 168 168 171 167 161 163 165 166 163 164 168 166 165 164 164 167 170 173 180 204 208 197 199 191 176 180 186 182 179 178 177 188 194 190 197 204 215 218 205 198 176 143 108 64 63 111 150 118 86 333 134 145 176 157 192 172 71 22 312 187 145 324 243 240 233 165 173 97 64 303 207 230 198 189 213 226 236 225 231 231 217
173 173 173 172 171 171 170 169 171 169 161 162 164 159 158 159 161 162 161 161 160 161 164 170 176 184 217 220 204 188 180 177 184 186 185 180 170 162 172 176 180 193 194 204 195 174 170 156 132 114 79 24 139 146 122 103 42 101 160 175 181 213 170 95 59 345 194 136 344 233 242 254 188 137 108 63 129 181 231 220 200 215 226 236 231 238 239 229
173 172 172 172 172 171 169 169 170 163 160 166 164 155 155 155 152 148 150 153 154 158 156 167 184 192 215 192 167 174 178 186 185 186 185 179 175 162 151 148 144 150 147 141 139 136 135 127 111 86 95 134 172 149 130 139 151 196 231 161 159 199 176 143 111 11 347 122 229 246 267 267 81 111 127 107 115 141 231 240 239 232 225 230 231 238 241 242
173 171 172 172 171 169 167 169 165 161 166 168 161 158 156 147 140 134 139 148 147 152 153 167 185 193 296 151 151 179 181 182 178 179 180 178 182 162 143 128 117 125 122 119 126 120 87 77 86 223 111 147 192 159 158 175 173 171 276 115 150 195 179 176 144 67 353 238 217 215 270 253 184 129 176 194 211 280 261 249 243 236 226 220 224 237 239 243
173 172 172 170 169 167 168 167 163 165 167 162 157 154 143 131 129 129 135 140 134 137 150 180 178 187 237 179 179 182 160 162 167 168 175 177 174 162 146 125 131 131 124 120 126 88 43 41 208 163 149 171 184 186 184 182 177 176 180 161 154 205 216 211 145 126 7 209 224 199 245 254 247 241 233 200 192 271 268 261 257 247 243 235 232 240 237 238
173 171 171 170 168 167 168 167 167 167 163 155 145 134 123 115 115 123 137 144 139 133 163 183 177 188 193 179 166 125 134 147 155 157 165 169 167 158 133 123 133 133 142 151 157 164 116 117 166 173 174 183 188 203 204 166 174 174 169 155 151 169 208 228 95 70 218 198 218 218 232 255 256 257 258 212 157 257 270 267 264 251 246 242 236 239 236 238
173 171 170 170 169 168 168 168 169 169 162 150 141 133 124 129 126 131 156 178 186 352 225 172 168 85 59 142 136 126 124 129 135 150 158 162 158 140 97 112 129 128 159 162 149 157 189 163 184 194 183 184 186 189 88 94 140 148 147 142 151 170 166 115 95 60 0 222 217 224 247 263 262 262 265 248 173 247 261 255 252 246 238 230 228 234 231 235
172 170 169 169 168 168 167 169 171 170 162 152 151 149 150 158 153 155 159 171 312 333 304 149 123 76 351 124 145 136 119 105 76 134 157 161 160 153 139 179 161 161 164 112 114 121 212 198 194 190 162 151 145 114 94 101 113 137 159 160 163 203 140 96 106 81 44 241 206 175 257 259 256 258 261 252 228 240 242 239 243 241 236 229 228 236 234 237
172 169 168 166 166 166 167 171 173 169 163 161 169 215 213 164 135 149 149 121 151 312 341 118 96 56 12 132 159 145 104 112 106 142 163 160 173 178 160 171 174 165 108 134 137 141 202 209 174 133 109 96 90 98 105 91 105 133 149 162 171 173 127 110 137 101 72 249 212 126 254 261 256 255 254 243 238 240 238 243 253 249 241 238 232 236 243 252
172 169 167 166 165 165 166 169 168 167 168 171 186 226 185 152 138 146 142 79 130 339 38 136 114 103 66 149 189 183 109 132 155 184 183 164 174 187 148 164 167 140 153 181 174 173 191 211 123 130 142 128 106 104 115 100 108 128 137 167 167 152 161 180 164 139 67 336 328 267 265 272 258 250 247 235 242 261 267 263 264 262 252 250 252 260 267 266
172 168 166 165 164 163 163 162 163 170 174 178 200 202 153 144 146 147 126 69 126 349 68 119 90 143 147 165 194 180 120 113 161 166 182 173 153 146 158 153 140 147 180 190 183 181 166 4 93 146 160 149 137 152 157 157 160 15 204 181 142 165 193 12 124 137 132 151 11 313 268 266 247 242 240 208 247 262 265 259 250 245 245 254 270 275 257 255
171 167 165 163 163 161 156 157 166 175 175 186 209 193 146 149 155 151 117 99 132 29 144 124 39 175 173 147 166 163 126 84 64 134 173 174 146 138 149 113 157 173 172 157 168 187 111 4 177 147 146 150 147 165 187 188 173 202 227 215 198 173 152 102 128 145 183 187 78 337 262 250 154 246 237 133 320 249 221 244 247 236 236 250 264 264 245 242
169 166 163 162 161 156 151 158 175 171 169 199 199 172 153 158 160 162 132 102 175 163 151 150 137 178 166 140 117 142 146 138 16 30 127 161 155 135 138 109 311 169 152 140 153 190 96 67 209 153 150 152 160 177 185 191 180 188 209 173 154 150 132 134 153 165 203 190 78 342 258 255 303 257 221 17 305 275 245 234 250 251 245 256 263 274 264 254
168 165 163 161 158 155 152 160 169 163 165 203 187 165 162 163 158 173 143 111 193 166 129 137 268 174 161 199 139 151 167 145 110 69 81 147 154 91 156 165 149 131 150 147 163 172 114 133 185 150 148 154 172 184 178 189 190 177 161 138 144 140 137 146 154 161 27 77 132 63 317 278 275 266 39 350 287 273 254 216 216 246 244 304 300 309 306 289
168 166 163 161 160 161 164 155 159 169 178 174 171 162 159 159 154 176 162 166 178 133 128 150 122 146 144 20 68 98 164 120 131 146 32 55 126 4 178 175 150 126 127 190 186 178 100 163 177 153 155 171 180 170 144 173 181 136 132 142 135 122 122 136 133 110 58 268 208 101 23 268 254 244 18 347 284 261 247 176 117 87 55 9 6 3 348 331
168 168 164 161 163 169 181 160 164 180 175 157 162 160 153 154 150 135 189 196 156 96 110 129 129 133 133 130 83 46 57 44 88 153 70 77 93 35 154 166 125 115 76 351 153 65 15 200 196 160 170 168 118 39 36 184 92 137 150 114 93 84 82 88 94 108 104 252 221 103 15 264 258 247 187 27 279 255 243 117 71 34 42 346 11 14 357 355
169 170 166 161 165 172 167 163 181 181 166 158 162 154 146 148 159 164 197 201 149 120 98 135 154 149 153 150 101 25 133 57 33 118 92 122 62 39 83 111 103 112 70 37 69 44 322 350 335 347 138 131 105 69 22 354 111 140 152 111 93 76 60 67 43 81 186 241 210 69 348 278 268 262 204 191 240 263 183 117 132 133 97 93 69 16 359 4
172 171 167 165 169 171 152 170 192 179 163 160 156 148 144 121 156 180 190 178 133 134 147 154 153 150 164 164 142 135 123 61 161 151 150 158 78 88 142 151 114 107 109 94 72 45 95 92 30 55 46 132 119 82 47 50 125 141 164 130 111 80 75 114 66 114 223 226 114 46 321 259 240 245 180 222 239 247 212 131 129 122 96 91 89 19 359 355
174 172 168 169 173 171 160 183 183 172 164 158 150 153 153 122 206 200 171 149 153 170 177 169 175 169 169 163 136 140 135 105 188 165 152 152 145 152 166 178 160 146 171 161 134 113 106 90 60 65 244 226 145 104 82 67 225 202 160 150 144 127 155 192 179 203 232 231 71 3 292 241 242 258 269 261 231 205 220 210 172 233 306 317 350 357 355 348
172 169 169 173 177 176 173 166 170 170 166 157 149 140 139 163 206 186 150 181 176 143 142 132 150 161 157 153 142 146 118 121 179 172 136 139 163 167 356 205 163 148 171 157 142 150 135 126 166 146 178 234 197 143 144 184 205 184 162 163 168 149 168 197 177 237 257 204 68 297 280 247 249 262 257 251 223 146 203 235 254 268 283 296 315 320 322 330
170 168 171 177 182 183 174 156 170 172 162 158 153 124 153 194 194 131 155 197 32 64 113 113 121 141 150 154 168 165 99 76 168 140 128 155 166 182 203 202 205 58 107 133 158 169 168 178 177 162 155 174 203 224 150 139 153 179 162 161 179 166 184 198 177 211 219 103 96 184 236 231 200 119 250 251 299 8 224 242 266 260 263 279 289 287 293 329
169 170 173 177 186 191 181 162 174 173 162 158 157 158 182 198 176 149 168 167 107 112 104 112 126 138 149 81 161 191 111 108 173 128 153 174 177 187 189 188 199 175 141 160 182 166 170 182 79 54 277 171 177 290 352 104 128 156 5 52 207 186 117 117 89 134 114 80 153 187 248 256 264 288 264 224 254 256 217 207 246 250 236 252 272 254 143 42
166 169 175 181 190 195 190 178 176 175 169 159 166 183 205 190 152 168 154 129 140 137 118 121 133 141 154 84 198 235 331 98 164 168 177 196 207 194 191 185 186 196 181 158 155 166 156 96 8 7 86 50 340 303 334 88 153 144 159 179 187 59 101 114 121 95 10 253 195 164 253 269 291 281 265 155 208 217 178 184 207 231 245 220 251 195 103 45
164 167 177 188 194 195 193 190 177 173 176 195 185 192 204 124 111 147 131 118 135 138 135 144 164 164 161 161 185 194 172 116 166 198 172 174 224 194 194 217 185 194 211 151 152 215 162 116 16 351 104 68 325 271 58 12 65 146 173 163 136 86 98 121 155 116 154 245 218 163 244 264 233 250 327 85 217 205 184 197 183 171 196 199 208 95 75 37
164 166 175 190 194 194 195 191 172 163 160 217 198 199 141 108 86 130 130 127 135 150 157 155 166 185 170 173 177 177 174 159 167 186 163 173 218 182 176 197 190 189 214 305 171 209 137 115 66 353 92 69 335 221 132 69 13 344 169 138 125 197 195 169 179 166 181 225 247 206 244 271 218 216 308 237 214 210 183 171 178 179 183 185 169 101 85 88
163 166 171 188 192 192 188 178 160 150 181 202 200 203 148 103 78 186 176 137 135 155 170 159 143 183 180 178 165 164 184 175 157 168 176 185 212 185 174 179 176 180 175 126 182 152 102 135 131 77 322 356 311 232 189 163 94 40 119 140 354 287 205 184 164 170 208 204 237 244 214 240 214 213 242 224 194 193 165 163 190 186 173 171 141 119 112 115
167 170 148 179 187 181 166 155 140 162 204 207 199 182 137 106 135 231 288 142 135 156 173 167 157 158 164 169 156 164 187 177 162 179 205 179 181 207 198 182 149 153 97 48 121 138 110 185 146 109 328 213 188 220 213 182 146 142 166 170 171 112 40 236 127 64 261 197 196 240 240 235 212 203 226 224 93 70 157 186 202 183 157 177 137 135 137 134
169 167 133 171 172 160 149 142 150 192 197 210 167 143 161 158 145 154 352 61 61 346 144 140 147 154 148 151 164 168 171 166 173 190 207 187 198 219 209 188 158 147 130 95 145 168 165 132 133 136 181 195 184 337 299 291 195 167 185 184 176 149 135 186 195 131 20 247 186 227 267 260 201 174 228 235 121 137 219 242 232 221 191 189 153 146 146 143
165 157 141 167 164 156 149 154 176 180 182 180 147 122 140 151 140 147 150 94 60 27 45 88 113 143 151 160 167 162 161 165 181 192 202 204 208 210 221 193 156 155 158 152 145 153 98 100 116 131 174 212 325 340 252 284 304 318 285 216 174 167 171 192 205 171 129 125 96 79 283 280 92 129 241 245 227 182 224 255 256 230 177 162 142 152 164 156
159 137 94 167 167 164 163 166 169 179 197 186 128 85 109 139 132 141 166 176 102 83 91 100 120 162 169 157 151 165 170 173 187 192 198 205 199 194 325 207 152 158 166 152 139 157 113 104 110 100 85 65 324 329 138 312 275 232 239 209 177 198 182 142 181 151 143 166 155 158 249 255 122 146 248 254 264 253 219 229 232 184 154 154 154 161 171 176
129 117 47 169 175 180 183 177 185 186 169 155 126 110 95 106 134 150 175 186 165 148 146 128 152 187 162 140 149 173 178 180 199 199 191 184 176 60 341 224 169 168 175 179 169 175 184 151 129 120 116 135 185 199 200 212 216 227 219 174 177 140 95 81 105 131 186 196 175 191 238 243 118 139 242 241 265 263 214 200 211 189 159 159 163 164 175 184
114 112 44 164 177 191 207 198 188 166 148 141 141 142 132 81 93 159 167 158 148 163 149 136 154 113 119 130 110 164 183 175 191 193 149 129 186 26 358 278 210 184 182 325 180 166 179 177 156 157 160 175 194 201 206 191 179 212 202 177 184 163 149 159 141 159 217 194 170 206 232 212 79 285 250 232 236 232 188 170 200 221 180 165 170 173 178 187
148 124 119 146 161 189 234 274 163 156 156 152 146 158 159 139 86 14 136 150 179 168 104 100 135 95 115 160 141 165 191 186 34 176 163 154 166 358 331 319 222 179 231 325 182 150 142 193 192 196 196 193 194 196 181 128 147 189 194 174 176 177 175 161 119 188 203 145 176 227 230 173 174 198 212 218 204 198 192 178 188 206 197 179 178 176 180 210
88 119 156 156 128 164 181 204 169 159 165 167 161 165 163 144 130 146 155 204 190 170 80 71 163 163 165 168 160 174 183 163 88 160 151 140 139 10 320 84 100 26 4 245 172 122 124 202 207 213 220 208 149 154 147 148 172 189 177 162 168 173 171 175 201 211 157 122 225 232 212 207 205 189 201 210 188 188 216 208 194 184 187 184 166 172 216 238
335 29 146 0 33 167 173 189 181 162 164 174 164 150 159 155 157 168 170 97 177 188 152 111 202 198 176 167 164 160 159 149 140 154 136 133 146 124 31 58 106 334 29 124 176 97 163 203 203 203 215 188 70 109 168 163 174 171 161 168 171 171 176 191 212 208 155 183 237 218 181 209 208 185 206 213 190 196 205 198 177 151 172 175 164 196 219 222
21 33 331 348 2 157 141 161 170 168 170 174 171 167 171 172 173 167 129 128 171 223 213 176 196 198 180 174 165 155 167 171 173 187 174 152 154 144 123 121 218 328 81 138 164 119 180 195 165 180 203 168 77 74 184 149 149 161 174 178 171 174 187 198 213 209 185 213 241 173 167 220 206 181 205 211 178 171 111 121 151 171 183 182 189 211 220 214
145 127 238 29 47 88 93 135 159 169 173 177 186 186 178 179 176 160 130 166 173 188 207 185 169 164 172 182 174 175 186 180 173 179 169 155 168 184 176 174 163 122 89 149 154 223 223 185 110 144 192 186 69 42 50 125 152 161 176 185 178 184 198 208 217 212 199 229 248 218 237 252 206 169 205 213 134 109 129 190 200 199 197 193 201 216 221 215
226 323 209 112 93 140 153 143 154 166 175 188 194 184 186 193 180 153 153 226 188 175 178 157 140 131 157 183 182 190 191 181 174 176 170 166 173 180 191 186 160 155 164 167 150 159 197 166 82 129 189 212 20 60 103 79 57 117 189 199 193 194 202 208 214 200 190 218 233 229 253 256 176 155 196 214 186 193 206 209 214 217 208 203 211 219 220 217
180 317 268 141 103 152 167 140 148 171 177 190 192 180 187 194 172 151 162 238 288 189 170 152 148 137 154 184 193 196 174 153 135 150 156 148 120 110 110 144 154 159 163 162 149 135 163 155 130 172 191 198 2 137 131 104 97 237 225 205 197 201 204 191 203 215 203 211 215 216 235 233 143 154 190 195 199 216 217 210 212 221 218 211 217 224 223 215